Location: Ca�n Batista
(41.4099°N, 1.7752°E)
Time: 14:25:15
(UTC+00:00)

OBJECT-B - Pass Details

Date: 03 March 2021
Orbit: 414 x 427 km, 97.0° (Epoch: 11 April)

Event Time Altitude Azimuth Distance (km) Brightness Sun altitude
Exits shadow 19:38:15 16° 3° (N) 1,178 3.1 -21.8°
Drops below altitude 10° 19:39:04 10° 359° (N) 1,513 3.7 -21.9°
Sets 19:41:06 0° 354° (N) 2,379 4.8 -22.3°
